sat.trackr.live / text

‹ back to catalog

STARLINK-33588

NORAD 62781 · 2025-015Z

PAYLOAD ACTIVE UNKNOWN

§ Identity

Operator
Country
US
Launch date
2025-01-21
Launch site
AFWTR
Launch vehicle
Mass (kg)
RCS (m²)

Purposes: comms

External: N2YO · Heavens-Above · Gunter

§ Orbital elements

Epoch: 2026-09-21T21:06:44.233632Z

Period
93.85 min
Inclination
53.1592°
Eccentricity
0.0001229
Mean motion
15.34400041 rev/d
Perigee alt
461.9 km
Apogee alt
463.5 km
Semi-major
6,840.8 km
B*
2.7893e-4
RAAN
125.0823°
Arg perigee
102.5293°
Mean anomaly
257.5847°
Rev number
9,460

§ Raw data

STARLINK-335881 62781U 25015Z   26264.87967863  .00009059  00000+0  27893-3 0  99952 62781  53.1592 125.0823 0001229 102.5293 257.5847 15.34400041 94607

JSON: /api/v1/satellites/62781 · /tle

For live sub-satellite position, see the globe view (requires WebGL).

§ Visibility from observer

Set your observer location to see the next 7 days of passes ≥ 10°. The values pass through the URL so the page stays shareable.

No JS? Fill the form by hand. The geolocation button needs JavaScript.